Date_UTC,IAGA,MLT,MLAT,IGRF_DECL,SZA,N,E,Z
2015-08-15 08:00:00,YKC,23.26,69.42,17.22,103.33,-17.9,-1.4,32.2
2015-08-15 08:01:00,YKC,23.28,69.42,17.22,103.33,-18.2,-1.9,32.2
2015-08-15 08:02:00,YKC,23.29,69.42,17.22,103.32,-18.5,-1.0,34.9
2015-08-15 08:03:00,YKC,23.31,69.42,17.22,103.31,-20.1,-0.3,33.8
2015-08-15 08:04:00,YKC,23.33,69.42,17.22,103.30,-23.6,2.2,29.8
2015-08-15 08:05:00,YKC,23.34,69.42,17.22,103.29,-30.4,0.7,29.0
2015-08-15 08:06:00,YKC,23.36,69.42,17.22,103.27,-33.3,0.7,28.9
2015-08-15 08:07:00,YKC,23.38,69.42,17.22,103.26,-35.4,1.5,26.5
2015-08-15 08:08:00,YKC,23.39,69.42,17.22,103.25,-33.5,3.8,24.6
2015-08-15 08:09:00,YKC,23.41,69.42,17.22,103.24,-26.5,3.6,28.6
2015-08-15 08:10:00,YKC,23.43,69.42,17.22,103.22,-17.3,5.8,33.0
2015-08-15 08:11:00,YKC,23.44,69.42,17.22,103.21,-9.4,7.2,35.9
2015-08-15 08:12:00,YKC,23.46,69.42,17.22,103.20,-0.8,8.0,39.3
2015-08-15 08:13:00,YKC,23.48,69.42,17.22,103.18,4.1,4.1,39.7
2015-08-15 08:14:00,YKC,23.49,69.42,17.22,103.17,9.8,-0.2,38.4
2015-08-15 08:15:00,YKC,23.51,69.42,17.22,103.15,14.9,-2.0,35.1
2015-08-15 08:16:00,YKC,23.53,69.42,17.22,103.13,16.5,-1.9,33.7
2015-08-15 08:17:00,YKC,23.54,69.42,17.22,103.12,15.9,-3.0,32.2
2015-08-15 08:18:00,YKC,23.56,69.42,17.22,103.10,14.3,-4.2,32.4
2015-08-15 08:19:00,YKC,23.58,69.42,17.22,103.08,14.8,-4.0,31.7
2015-08-15 08:20:00,YKC,23.59,69.42,17.22,103.06,19.0,-3.7,30.5
2015-08-15 08:21:00,YKC,23.61,69.42,17.22,103.04,20.8,-2.8,27.8
2015-08-15 08:22:00,YKC,23.63,69.42,17.22,103.03,20.5,-0.4,23.7
2015-08-15 08:23:00,YKC,23.64,69.42,17.22,103.01,15.8,1.3,17.3
2015-08-15 08:24:00,YKC,23.66,69.42,17.22,102.99,13.1,1.8,13.5
2015-08-15 08:25:00,YKC,23.68,69.42,17.22,102.96,13.5,2.9,14.3
2015-08-15 08:26:00,YKC,23.69,69.42,17.22,102.94,11.9,3.8,16.7
2015-08-15 08:27:00,YKC,23.71,69.42,17.22,102.92,9.0,4.5,17.7
2015-08-15 08:28:00,YKC,23.73,69.42,17.22,102.90,6.9,4.4,15.6
2015-08-15 08:29:00,YKC,23.74,69.42,17.22,102.88,6.7,3.0,15.3
2015-08-15 08:30:00,YKC,23.76,69.42,17.22,102.85,20.1,16.2,12.2
2015-08-15 08:31:00,YKC,23.78,69.42,17.22,102.83,25.2,21.4,10.0
2015-08-15 08:32:00,YKC,23.79,69.42,17.22,102.81,-8.3,5.6,15.0
2015-08-15 08:33:00,YKC,23.81,69.42,17.22,102.78,-14.9,6.8,32.2
2015-08-15 08:34:00,YKC,23.83,69.42,17.22,102.76,-11.1,8.1,56.9
2015-08-15 08:35:00,YKC,23.84,69.42,17.22,102.73,-7.1,-0.8,81.0
2015-08-15 08:36:00,YKC,23.86,69.42,17.22,102.70,3.1,-4.1,80.1
2015-08-15 08:37:00,YKC,23.88,69.42,17.22,102.68,2.7,-9.0,72.3
2015-08-15 08:38:00,YKC,23.89,69.42,17.22,102.65,7.1,-12.1,73.5
2015-08-15 08:39:00,YKC,23.91,69.42,17.22,102.62,14.0,-9.2,81.2
2015-08-15 08:40:00,YKC,23.93,69.42,17.22,102.59,20.6,-11.8,83.0
2015-08-15 08:41:00,YKC,23.94,69.42,17.22,102.57,23.2,-14.5,85.6
2015-08-15 08:42:00,YKC,23.96,69.42,17.22,102.54,32.3,-14.7,85.5
2015-08-15 08:43:00,YKC,23.98,69.42,17.22,102.51,37.2,-14.6,92.7
2015-08-15 08:44:00,YKC,23.99,69.42,17.22,102.48,38.2,-18.5,112.7
2015-08-15 08:45:00,YKC,0.01,69.42,17.22,102.45,22.4,-10.2,131.9
2015-08-15 08:46:00,YKC,0.03,69.42,17.22,102.42,6.7,-3.3,128.9
2015-08-15 08:47:00,YKC,0.04,69.42,17.22,102.39,-14.3,-4.7,143.4
2015-08-15 08:48:00,YKC,0.06,69.42,17.22,102.35,-31.9,-12.7,173.8
2015-08-15 08:49:00,YKC,0.08,69.42,17.22,102.32,-48.8,-23.1,180.3
2015-08-15 08:50:00,YKC,0.09,69.42,17.22,102.29,-66.5,-38.6,158.9
2015-08-15 08:51:00,YKC,0.11,69.42,17.22,102.25,-68.4,-43.0,156.8
2015-08-15 08:52:00,YKC,0.13,69.42,17.22,102.22,-73.3,-38.9,165.9
2015-08-15 08:53:00,YKC,0.15,69.42,17.22,102.19,-71.6,-31.9,179.4
2015-08-15 08:54:00,YKC,0.16,69.42,17.22,102.15,-74.7,-31.7,183.2
2015-08-15 08:55:00,YKC,0.18,69.42,17.22,102.12,-82.8,-20.6,179.1
2015-08-15 08:56:00,YKC,0.20,69.42,17.22,102.08,-85.3,-23.2,177.8
2015-08-15 08:57:00,YKC,0.21,69.42,17.22,102.04,-70.2,-22.4,184.8
2015-08-15 08:58:00,YKC,0.23,69.42,17.22,102.01,-66.6,-20.4,186.9
2015-08-15 08:59:00,YKC,0.25,69.42,17.22,101.97,-70.7,-17.0,168.3
2015-08-15 09:00:00,YKC,0.26,69.42,17.22,101.93,-69.2,-14.2,158.8
2015-08-15 09:01:00,YKC,0.28,69.42,17.22,101.90,-69.6,-15.9,159.8
2015-08-15 09:02:00,YKC,0.30,69.42,17.22,101.86,-80.9,-9.7,155.5
2015-08-15 09:03:00,YKC,0.31,69.42,17.22,101.82,-90.9,-7.2,166.0
2015-08-15 09:04:00,YKC,0.33,69.42,17.22,101.78,-94.8,-7.8,178.0
2015-08-15 09:05:00,YKC,0.35,69.42,17.22,101.74,-94.1,-7.2,167.6
2015-08-15 09:06:00,YKC,0.36,69.42,17.22,101.70,-87.1,-5.3,158.7
2015-08-15 09:07:00,YKC,0.38,69.42,17.22,101.66,-94.3,9.0,147.5
2015-08-15 09:08:00,YKC,0.40,69.42,17.22,101.62,-89.6,22.2,165.9
2015-08-15 09:09:00,YKC,0.41,69.42,17.22,101.57,-88.8,7.6,167.9
2015-08-15 09:10:00,YKC,0.43,69.42,17.22,101.53,-82.4,9.0,142.0
2015-08-15 09:11:00,YKC,0.45,69.42,17.22,101.49,-81.9,30.2,123.9
2015-08-15 09:12:00,YKC,0.46,69.42,17.22,101.45,-70.5,55.4,138.4
2015-08-15 09:13:00,YKC,0.48,69.42,17.22,101.40,-69.9,59.7,183.3
2015-08-15 09:14:00,YKC,0.50,69.42,17.22,101.36,-77.6,19.5,204.1
2015-08-15 09:15:00,YKC,0.51,69.42,17.22,101.31,-71.7,-3.2,199.6
2015-08-15 09:16:00,YKC,0.53,69.42,17.22,101.27,-62.3,0.3,188.5
2015-08-15 09:17:00,YKC,0.55,69.42,17.22,101.22,-55.2,-0.3,187.6
2015-08-15 09:18:00,YKC,0.56,69.42,17.22,101.18,-52.3,-3.4,183.3
2015-08-15 09:19:00,YKC,0.58,69.42,17.22,101.13,-49.4,-9.4,171.0
2015-08-15 09:20:00,YKC,0.60,69.42,17.22,101.09,-50.4,-10.2,153.7
2015-08-15 09:21:00,YKC,0.61,69.42,17.22,101.04,-61.2,1.3,133.2
2015-08-15 09:22:00,YKC,0.63,69.42,17.22,100.99,-70.7,17.2,121.3
2015-08-15 09:23:00,YKC,0.65,69.42,17.22,100.94,-64.7,26.3,132.3
2015-08-15 09:24:00,YKC,0.67,69.42,17.22,100.89,-60.1,35.6,146.1
2015-08-15 09:25:00,YKC,0.68,69.42,17.22,100.85,-65.3,41.6,190.8
2015-08-15 09:26:00,YKC,0.70,69.42,17.22,100.80,-88.5,43.0,235.0
2015-08-15 09:27:00,YKC,0.72,69.42,17.22,100.75,-111.9,53.4,212.9
2015-08-15 09:28:00,YKC,0.73,69.42,17.22,100.70,-127.8,67.6,229.9
2015-08-15 09:29:00,YKC,0.75,69.42,17.22,100.65,-132.5,53.9,259.8
2015-08-15 09:30:00,YKC,0.77,69.42,17.22,100.59,-169.8,40.3,292.9
2015-08-15 09:31:00,YKC,0.78,69.42,17.22,100.54,-154.6,33.1,301.9
2015-08-15 09:32:00,YKC,0.80,69.42,17.22,100.49,-132.5,46.4,305.9
2015-08-15 09:33:00,YKC,0.82,69.42,17.22,100.44,-141.8,40.4,285.0
2015-08-15 09:34:00,YKC,0.83,69.42,17.22,100.39,-150.2,45.4,279.3
2015-08-15 09:35:00,YKC,0.85,69.42,17.22,100.33,-143.1,41.0,283.0
2015-08-15 09:36:00,YKC,0.87,69.42,17.22,100.28,-179.6,24.4,285.1
2015-08-15 09:37:00,YKC,0.88,69.42,17.22,100.22,-204.9,27.4,283.1
2015-08-15 09:38:00,YKC,0.90,69.42,17.22,100.17,-237.1,33.6,284.9
2015-08-15 09:39:00,YKC,0.92,69.42,17.22,100.12,-276.7,28.7,288.5
2015-08-15 09:40:00,YKC,0.93,69.42,17.22,100.06,-296.9,11.3,271.3
2015-08-15 09:41:00,YKC,0.95,69.42,17.22,100.00,-281.3,-6.9,251.7
2015-08-15 09:42:00,YKC,0.97,69.42,17.22,99.95,-269.1,-30.4,209.6
2015-08-15 09:43:00,YKC,0.98,69.42,17.22,99.89,-231.6,-25.4,164.7
2015-08-15 09:44:00,YKC,1.00,69.42,17.22,99.83,-224.7,10.8,133.6
2015-08-15 09:45:00,YKC,1.02,69.42,17.22,99.78,-237.9,56.2,126.8
2015-08-15 09:46:00,YKC,1.03,69.42,17.22,99.72,-244.9,73.3,128.9
2015-08-15 09:47:00,YKC,1.05,69.42,17.22,99.66,-247.8,75.4,133.8
2015-08-15 09:48:00,YKC,1.07,69.42,17.22,99.60,-260.1,79.5,137.5
2015-08-15 09:49:00,YKC,1.08,69.42,17.22,99.54,-276.2,78.5,139.1
2015-08-15 09:50:00,YKC,1.10,69.42,17.22,99.48,-274.2,74.5,158.5
2015-08-15 09:51:00,YKC,1.12,69.42,17.22,99.42,-263.5,57.9,177.3
2015-08-15 09:52:00,YKC,1.13,69.42,17.22,99.36,-262.2,36.0,186.9
2015-08-15 09:53:00,YKC,1.15,69.42,17.22,99.30,-269.4,22.7,193.3
2015-08-15 09:54:00,YKC,1.17,69.42,17.22,99.24,-264.9,10.6,193.5
2015-08-15 09:55:00,YKC,1.18,69.42,17.22,99.18,-255.8,-1.5,189.1
2015-08-15 09:56:00,YKC,1.20,69.42,17.22,99.12,-241.5,-8.3,182.4
2015-08-15 09:57:00,YKC,1.22,69.42,17.22,99.05,-230.5,-10.6,175.8
2015-08-15 09:58:00,YKC,1.23,69.42,17.22,98.99,-226.9,-12.9,165.5
2015-08-15 09:59:00,YKC,1.25,69.42,17.22,98.93,-229.8,-6.5,150.4
2015-08-15 10:00:00,YKC,1.27,69.42,17.22,98.86,-224.0,5.9,145.0
2015-08-15 10:01:00,YKC,1.28,69.42,17.22,98.80,-210.2,8.3,144.2
2015-08-15 10:02:00,YKC,1.30,69.42,17.22,98.74,-192.2,1.6,136.1
2015-08-15 10:03:00,YKC,1.32,69.42,17.22,98.67,-200.5,0.3,124.2
2015-08-15 10:04:00,YKC,1.33,69.42,17.22,98.61,-229.7,5.8,127.8
2015-08-15 10:05:00,YKC,1.35,69.42,17.22,98.54,-246.1,19.3,140.5
2015-08-15 10:06:00,YKC,1.37,69.42,17.22,98.47,-236.7,16.1,159.8
2015-08-15 10:07:00,YKC,1.38,69.42,17.22,98.41,-224.1,10.3,158.7
2015-08-15 10:08:00,YKC,1.40,69.42,17.22,98.34,-225.4,8.8,151.2
2015-08-15 10:09:00,YKC,1.42,69.42,17.22,98.27,-216.6,3.8,146.3
2015-08-15 10:10:00,YKC,1.43,69.42,17.22,98.21,-223.0,-0.7,143.1
2015-08-15 10:11:00,YKC,1.45,69.42,17.22,98.14,-232.1,3.0,154.2
2015-08-15 10:12:00,YKC,1.47,69.42,17.22,98.07,-257.6,10.6,171.2
2015-08-15 10:13:00,YKC,1.48,69.42,17.22,98.00,-264.4,7.1,185.2
2015-08-15 10:14:00,YKC,1.50,69.42,17.22,97.93,-253.2,-1.0,187.5
2015-08-15 10:15:00,YKC,1.52,69.42,17.22,97.86,-247.3,0.9,188.1
2015-08-15 10:16:00,YKC,1.53,69.42,17.22,97.79,-251.4,1.0,183.9
2015-08-15 10:17:00,YKC,1.55,69.42,17.22,97.72,-257.8,-0.7,182.1
2015-08-15 10:18:00,YKC,1.57,69.42,17.22,97.65,-255.3,-1.1,198.9
2015-08-15 10:19:00,YKC,1.58,69.42,17.22,97.58,-268.2,19.5,208.6
2015-08-15 10:20:00,YKC,1.60,69.42,17.22,97.51,-291.0,34.6,214.0
2015-08-15 10:21:00,YKC,1.62,69.42,17.22,97.44,-292.0,29.0,217.8
2015-08-15 10:22:00,YKC,1.63,69.42,17.22,97.37,-280.8,13.0,228.9
2015-08-15 10:23:00,YKC,1.65,69.42,17.22,97.29,-283.9,6.9,232.8
2015-08-15 10:24:00,YKC,1.67,69.42,17.22,97.22,-290.1,14.5,223.4
2015-08-15 10:25:00,YKC,1.68,69.42,17.22,97.15,-295.6,23.2,212.0
2015-08-15 10:26:00,YKC,1.70,69.42,17.22,97.07,-312.2,33.4,200.9
2015-08-15 10:27:00,YKC,1.72,69.42,17.22,97.00,-303.2,42.5,202.9
2015-08-15 10:28:00,YKC,1.73,69.42,17.22,96.93,-272.0,37.7,195.3
2015-08-15 10:29:00,YKC,1.75,69.42,17.22,96.85,-271.5,36.8,196.4
2015-08-15 10:30:00,YKC,1.77,69.42,17.22,96.78,-277.3,44.2,235.2
2015-08-15 10:31:00,YKC,1.78,69.42,17.22,96.70,-272.2,53.7,268.7
2015-08-15 10:32:00,YKC,1.80,69.42,17.22,96.63,-248.9,53.6,304.5
2015-08-15 10:33:00,YKC,1.82,69.42,17.22,96.55,-229.9,44.8,315.0
2015-08-15 10:34:00,YKC,1.83,69.42,17.22,96.47,-218.5,36.7,305.4
2015-08-15 10:35:00,YKC,1.85,69.42,17.22,96.40,-217.4,34.5,283.1
2015-08-15 10:36:00,YKC,1.87,69.42,17.22,96.32,-214.9,29.7,272.7
2015-08-15 10:37:00,YKC,1.88,69.42,17.22,96.24,-188.8,19.6,269.0
2015-08-15 10:38:00,YKC,1.90,69.42,17.22,96.16,-157.7,12.4,259.9
2015-08-15 10:39:00,YKC,1.92,69.42,17.22,96.09,-138.5,12.9,267.3
2015-08-15 10:40:00,YKC,1.93,69.42,17.22,96.01,-139.7,15.8,285.4
2015-08-15 10:41:00,YKC,1.95,69.42,17.22,95.93,-153.1,16.4,311.0
2015-08-15 10:42:00,YKC,1.97,69.42,17.22,95.85,-141.7,-1.4,343.4
2015-08-15 10:43:00,YKC,1.98,69.42,17.22,95.77,-112.4,-26.9,359.9
2015-08-15 10:44:00,YKC,2.00,69.42,17.22,95.69,-94.8,-31.0,348.9
2015-08-15 10:45:00,YKC,2.01,69.42,17.22,95.61,-93.6,-20.3,336.7
2015-08-15 10:46:00,YKC,2.03,69.42,17.22,95.53,-91.3,-7.3,335.0
2015-08-15 10:47:00,YKC,2.05,69.42,17.22,95.45,-83.3,5.1,334.2
2015-08-15 10:48:00,YKC,2.06,69.42,17.22,95.37,-66.8,13.3,339.8
2015-08-15 10:49:00,YKC,2.08,69.42,17.22,95.29,-52.7,17.1,352.9
2015-08-15 10:50:00,YKC,2.10,69.42,17.22,95.21,-35.2,4.5,362.1
2015-08-15 10:51:00,YKC,2.11,69.42,17.22,95.12,-23.6,-3.5,344.4
2015-08-15 10:52:00,YKC,2.13,69.42,17.22,95.04,-17.2,2.5,328.2
2015-08-15 10:53:00,YKC,2.15,69.42,17.22,94.96,-22.8,9.7,320.4
2015-08-15 10:54:00,YKC,2.16,69.42,17.22,94.88,-34.9,15.1,319.3
2015-08-15 10:55:00,YKC,2.18,69.42,17.22,94.79,-38.3,22.4,316.6
2015-08-15 10:56:00,YKC,2.19,69.42,17.22,94.71,-27.4,34.8,316.1
2015-08-15 10:57:00,YKC,2.21,69.42,17.22,94.62,-6.5,50.6,323.5
2015-08-15 10:58:00,YKC,2.23,69.42,17.22,94.54,8.5,53.9,326.5
2015-08-15 10:59:00,YKC,2.24,69.42,17.22,94.46,33.6,51.7,335.0
2015-08-15 11:00:00,YKC,2.26,69.42,17.22,94.37,63.8,42.5,338.3
2015-08-15 11:01:00,YKC,2.28,69.42,17.22,94.28,97.1,33.6,328.6
2015-08-15 11:02:00,YKC,2.29,69.42,17.22,94.20,116.5,19.4,310.0
2015-08-15 11:03:00,YKC,2.31,69.42,17.22,94.11,124.4,5.0,288.0
2015-08-15 11:04:00,YKC,2.32,69.42,17.22,94.03,127.0,-4.7,263.2
2015-08-15 11:05:00,YKC,2.34,69.42,17.22,93.94,128.9,-15.8,245.4
2015-08-15 11:06:00,YKC,2.36,69.42,17.22,93.85,132.9,-21.7,231.7
2015-08-15 11:07:00,YKC,2.37,69.42,17.22,93.77,122.9,-18.0,219.7
2015-08-15 11:08:00,YKC,2.39,69.42,17.22,93.68,119.1,-7.1,213.0
2015-08-15 11:09:00,YKC,2.41,69.42,17.22,93.59,124.5,-9.9,208.9
2015-08-15 11:10:00,YKC,2.42,69.42,17.22,93.50,116.9,-1.3,201.1
2015-08-15 11:11:00,YKC,2.44,69.42,17.22,93.42,110.0,-2.9,196.5
2015-08-15 11:12:00,YKC,2.45,69.42,17.22,93.33,105.5,6.4,185.4
2015-08-15 11:13:00,YKC,2.47,69.42,17.22,93.24,110.0,9.5,180.7
2015-08-15 11:14:00,YKC,2.49,69.42,17.22,93.15,100.1,22.0,174.4
2015-08-15 11:15:00,YKC,2.50,69.42,17.22,93.06,96.7,30.3,169.8
2015-08-15 11:16:00,YKC,2.52,69.42,17.22,92.97,94.5,26.0,161.5
2015-08-15 11:17:00,YKC,2.53,69.42,17.22,92.88,89.9,34.6,155.6
2015-08-15 11:18:00,YKC,2.55,69.42,17.22,92.79,85.4,30.7,150.8
2015-08-15 11:19:00,YKC,2.57,69.42,17.22,92.70,89.5,37.4,154.2
2015-08-15 11:20:00,YKC,2.58,69.42,17.22,92.61,83.3,35.6,150.9
2015-08-15 11:21:00,YKC,2.60,69.42,17.22,92.52,75.4,44.2,152.5
2015-08-15 11:22:00,YKC,2.62,69.42,17.22,92.43,56.4,56.5,156.7
2015-08-15 11:23:00,YKC,2.63,69.42,17.22,92.33,34.9,70.5,159.1
2015-08-15 11:24:00,YKC,2.65,69.42,17.22,92.24,19.4,97.0,166.0
2015-08-15 11:25:00,YKC,2.66,69.42,17.22,92.15,18.8,128.3,179.8
2015-08-15 11:26:00,YKC,2.68,69.42,17.22,92.06,42.0,143.2,204.9
2015-08-15 11:27:00,YKC,2.69,69.42,17.22,91.96,57.9,135.1,227.9
2015-08-15 11:28:00,YKC,2.71,69.42,17.22,91.87,41.9,130.9,256.9
2015-08-15 11:29:00,YKC,2.73,69.42,17.22,91.78,9.9,140.6,327.5
2015-08-15 11:30:00,YKC,2.74,69.42,17.22,91.68,-47.4,132.9,419.3
2015-08-15 11:31:00,YKC,2.76,69.42,17.22,91.59,-125.2,102.8,502.8
2015-08-15 11:32:00,YKC,2.77,69.42,17.22,91.50,-302.2,88.5,613.3
2015-08-15 11:33:00,YKC,2.79,69.42,17.22,91.40,-594.1,78.5,643.7
2015-08-15 11:34:00,YKC,2.81,69.42,17.22,91.31,-726.2,63.9,549.1
2015-08-15 11:35:00,YKC,2.82,69.42,17.22,91.21,-896.6,6.9,405.5
2015-08-15 11:36:00,YKC,2.84,69.42,17.22,91.12,-917.5,12.8,237.1
2015-08-15 11:37:00,YKC,2.85,69.42,17.22,91.02,-862.1,40.1,216.8
2015-08-15 11:38:00,YKC,2.87,69.42,17.22,90.93,-804.5,37.0,209.5
2015-08-15 11:39:00,YKC,2.88,69.42,17.22,90.83,-779.9,9.6,207.8
2015-08-15 11:40:00,YKC,2.90,69.42,17.22,90.73,-799.7,-21.6,240.4
2015-08-15 11:41:00,YKC,2.92,69.42,17.22,90.64,-794.4,-60.3,301.4
2015-08-15 11:42:00,YKC,2.93,69.42,17.22,90.54,-728.8,-59.5,310.3
2015-08-15 11:43:00,YKC,2.95,69.42,17.22,90.44,-708.4,-75.2,303.7
2015-08-15 11:44:00,YKC,2.96,69.42,17.22,90.35,-720.2,-70.4,238.4
2015-08-15 11:45:00,YKC,2.98,69.42,17.22,90.25,-752.7,-34.0,210.6
2015-08-15 11:46:00,YKC,2.99,69.42,17.22,90.15,-778.7,3.9,224.5
2015-08-15 11:47:00,YKC,3.01,69.42,17.22,90.05,-791.5,30.9,278.6
2015-08-15 11:48:00,YKC,3.03,69.42,17.22,89.96,-744.1,77.1,383.3
2015-08-15 11:49:00,YKC,3.04,69.42,17.22,89.86,-722.8,151.2,477.5
2015-08-15 11:50:00,YKC,3.06,69.42,17.22,89.76,-740.2,213.2,606.4
2015-08-15 11:51:00,YKC,3.07,69.42,17.22,89.66,-733.7,217.8,633.5
2015-08-15 11:52:00,YKC,3.09,69.42,17.22,89.56,-700.2,296.7,640.3
2015-08-15 11:53:00,YKC,3.10,69.42,17.22,89.46,-733.3,370.1,566.0
2015-08-15 11:54:00,YKC,3.12,69.42,17.22,89.36,-728.4,364.9,588.3
2015-08-15 11:55:00,YKC,3.13,69.42,17.22,89.26,-733.7,384.6,564.8
2015-08-15 11:56:00,YKC,3.15,69.42,17.22,89.16,-766.5,385.5,595.0
2015-08-15 11:57:00,YKC,3.16,69.42,17.22,89.06,-752.1,381.1,594.0
2015-08-15 11:58:00,YKC,3.18,69.42,17.22,88.96,-716.6,241.9,717.4
2015-08-15 11:59:00,YKC,3.20,69.42,17.22,88.86,-705.1,130.4,750.8
2015-08-15 12:00:00,YKC,3.21,69.42,17.22,88.76,-683.0,128.8,725.1
2015-08-15 12:01:00,YKC,3.23,69.42,17.22,88.66,-606.1,157.1,717.2
2015-08-15 12:02:00,YKC,3.24,69.42,17.22,88.56,-506.3,114.7,758.4
2015-08-15 12:03:00,YKC,3.26,69.42,17.22,88.46,-411.4,46.4,759.1
2015-08-15 12:04:00,YKC,3.27,69.42,17.22,88.36,-330.7,5.0,747.2
2015-08-15 12:05:00,YKC,3.29,69.42,17.22,88.26,-293.5,5.4,732.3
2015-08-15 12:06:00,YKC,3.30,69.42,17.22,88.15,-269.9,-6.5,730.3
2015-08-15 12:07:00,YKC,3.32,69.42,17.22,88.05,-221.5,-20.7,716.5
2015-08-15 12:08:00,YKC,3.33,69.42,17.22,87.95,-171.6,-60.1,676.8
2015-08-15 12:09:00,YKC,3.35,69.42,17.22,87.85,-128.1,-103.0,613.0
2015-08-15 12:10:00,YKC,3.36,69.42,17.22,87.74,-96.7,-133.8,548.3
2015-08-15 12:11:00,YKC,3.38,69.42,17.22,87.64,-108.2,-153.1,483.7
2015-08-15 12:12:00,YKC,3.39,69.42,17.22,87.54,-123.8,-155.4,425.4
2015-08-15 12:13:00,YKC,3.41,69.42,17.22,87.43,-132.3,-145.5,383.4
2015-08-15 12:14:00,YKC,3.42,69.42,17.22,87.33,-149.7,-127.3,344.7
2015-08-15 12:15:00,YKC,3.44,69.42,17.22,87.23,-187.9,-106.6,312.1
2015-08-15 12:16:00,YKC,3.46,69.42,17.22,87.12,-208.2,-88.4,301.4
2015-08-15 12:17:00,YKC,3.47,69.42,17.22,87.02,-200.5,-49.5,288.4
2015-08-15 12:18:00,YKC,3.49,69.42,17.22,86.91,-184.9,-15.3,298.1
2015-08-15 12:19:00,YKC,3.50,69.42,17.22,86.81,-153.9,7.5,303.8
2015-08-15 12:20:00,YKC,3.52,69.42,17.22,86.70,-141.4,22.5,295.1
2015-08-15 12:21:00,YKC,3.53,69.42,17.22,86.60,-189.8,-3.4,306.1
2015-08-15 12:22:00,YKC,3.55,69.42,17.22,86.49,-185.5,4.6,279.0
2015-08-15 12:23:00,YKC,3.56,69.42,17.22,86.39,-159.9,18.5,273.2
2015-08-15 12:24:00,YKC,3.58,69.42,17.22,86.28,-167.7,32.9,283.8
2015-08-15 12:25:00,YKC,3.59,69.42,17.22,86.18,-192.7,33.5,282.0
2015-08-15 12:26:00,YKC,3.61,69.42,17.22,86.07,-206.1,28.6,282.8
2015-08-15 12:27:00,YKC,3.62,69.42,17.22,85.96,-208.6,24.7,292.8
2015-08-15 12:28:00,YKC,3.64,69.42,17.22,85.86,-202.1,22.8,298.4
2015-08-15 12:29:00,YKC,3.65,69.42,17.22,85.75,-198.2,37.4,267.7
2015-08-15 12:30:00,YKC,3.67,69.42,17.22,85.65,-200.8,68.3,265.5
2015-08-15 12:31:00,YKC,3.68,69.42,17.22,85.54,-212.3,98.6,281.7
2015-08-15 12:32:00,YKC,3.70,69.42,17.22,85.43,-227.2,123.0,310.2
2015-08-15 12:33:00,YKC,3.71,69.42,17.22,85.33,-237.9,120.7,337.6
2015-08-15 12:34:00,YKC,3.73,69.42,17.22,85.22,-252.9,113.3,355.5
2015-08-15 12:35:00,YKC,3.74,69.42,17.22,85.11,-262.8,112.0,391.3
2015-08-15 12:36:00,YKC,3.76,69.42,17.22,85.00,-282.0,115.6,407.7
2015-08-15 12:37:00,YKC,3.77,69.42,17.22,84.90,-286.7,111.7,435.9
2015-08-15 12:38:00,YKC,3.78,69.42,17.22,84.79,-268.5,108.3,470.0
2015-08-15 12:39:00,YKC,3.80,69.42,17.22,84.68,-235.5,106.7,500.3
2015-08-15 12:40:00,YKC,3.81,69.42,17.22,84.57,-219.0,106.1,536.7
2015-08-15 12:41:00,YKC,3.83,69.42,17.22,84.46,-221.2,103.0,573.9
2015-08-15 12:42:00,YKC,3.84,69.42,17.22,84.35,-221.9,106.2,592.4
2015-08-15 12:43:00,YKC,3.86,69.42,17.22,84.25,-234.5,137.2,596.0
2015-08-15 12:44:00,YKC,3.87,69.42,17.22,84.14,-201.2,166.7,607.4
2015-08-15 12:45:00,YKC,3.89,69.42,17.22,84.03,-147.0,157.5,621.8
2015-08-15 12:46:00,YKC,3.90,69.42,17.22,83.92,-119.9,111.7,615.3
2015-08-15 12:47:00,YKC,3.92,69.42,17.22,83.81,-102.3,65.2,592.5
2015-08-15 12:48:00,YKC,3.93,69.42,17.22,83.70,-103.8,38.1,552.4
2015-08-15 12:49:00,YKC,3.95,69.42,17.22,83.59,-91.3,31.9,532.0
2015-08-15 12:50:00,YKC,3.96,69.42,17.22,83.48,-79.1,27.4,526.0
2015-08-15 12:51:00,YKC,3.98,69.42,17.22,83.37,-72.0,27.9,521.6
2015-08-15 12:52:00,YKC,3.99,69.42,17.22,83.26,-75.0,23.8,521.9
2015-08-15 12:53:00,YKC,4.01,69.42,17.22,83.15,-60.5,11.5,515.9
2015-08-15 12:54:00,YKC,4.02,69.42,17.22,83.04,-37.6,-17.3,499.8
2015-08-15 12:55:00,YKC,4.04,69.42,17.22,82.93,-38.2,-26.3,470.6
2015-08-15 12:56:00,YKC,4.05,69.42,17.22,82.82,-36.2,-19.6,462.5
2015-08-15 12:57:00,YKC,4.06,69.42,17.22,82.71,-14.6,-24.0,459.4
2015-08-15 12:58:00,YKC,4.08,69.42,17.22,82.60,1.6,-26.9,447.4
2015-08-15 12:59:00,YKC,4.09,69.42,17.22,82.49,10.9,-31.8,435.6
2015-08-15 13:00:00,YKC,4.11,69.42,17.22,82.38,16.3,-23.9,425.8
